Le nostre stazioni meteo in Italia

Pubblicità
Il mio iltempo24.it
Rolo, Italia (16143): Temperatura & dewpoint: 14.01.2019 07:00:00 - 20.01.2019 07:00:00 (CET)Rolo, Italia (16143): velocità del vento: 14.01.2019 07:00:00 - 20.01.2019 07:00:00 (CET)Rolo, Italia (16143): direzione del vento: 14.01.2019 07:00:00 - 20.01.2019 07:00:00 (CET)Rolo, Italia (16143): reduced air pressure: 14.01.2019 07:00:00 - 20.01.2019 07:00:00 (CET)Rolo, Italia (16143): precipitazioni: 14.01.2019 07:00:00 - 20.01.2019 07:00:00 (CET)
Data & Tempo tt [°C] td [°C] ff [km/h] ff [kn] dd ppp [hPa] rr [mm]
20.01.2019 07:00:00 - - - - - - -
20.01.2019 06:00:00 0,0 -1,1 3 1 O 1014,9 -
20.01.2019 05:00:00 -0,4 -1,5 - - - 1015,1 0,0
20.01.2019 04:00:00 0,7 -0,6 0 0 O 1015,3 0,0
20.01.2019 03:00:00 1,4 -0,2 2 1 O 1015,6 0,0
20.01.2019 02:00:00 1,6 0,0 - - - 1015,6 0,0
20.01.2019 01:00:00 1,8 0,0 1 1 SO 1015,9 0,0
20.01.2019 00:00:00 - - - - - - -
19.01.2019 23:00:00 2,1 -0,2 - - - 1016,4 -
19.01.2019 22:00:00 2,0 -0,1 2 1 NNO 1016,4 0,0
19.01.2019 21:00:00 1,6 -0,5 2 1 NNO 1016,2 0,0
19.01.2019 20:00:00 2,3 -0,1 1 1 N 1016,2 0,0
19.01.2019 19:00:00 2,3 0,2 3 2 N 1016,1 0,0
19.01.2019 18:00:00 3,0 0,1 - - - 1016,1 0,0
19.01.2019 17:00:00 4,7 0,5 - - - 1016,1 0,0
19.01.2019 16:00:00 5,4 0,2 3 2 SE 1016,3 0,0
19.01.2019 15:00:00 5,2 0,2 6 4 E 1016,3 0,0
19.01.2019 14:00:00 5,1 -0,5 8 4 NE 1016,6 0,0
19.01.2019 13:00:00 5,1 -0,7 6 4 NE 1017,3 0,0
19.01.2019 12:00:00 4,4 -0,8 5 3 O 1018,1 0,0
19.01.2019 11:00:00 4,0 -1,2 1 1 ESE 1018,4 0,0
19.01.2019 10:00:00 3,3 -1,1 4 2 ENE 1018,0 0,0
19.01.2019 09:00:00 2,8 -0,3 1 0 ENE 1017,6 0,0
19.01.2019 08:00:00 2,8 -0,7 - - - 1017,4 0,0
19.01.2019 07:00:00 2,5 0,2 3 1 N 1017,2 0,0
19.01.2019 06:00:00 2,8 -0,1 1 1 ENE 1017,3 0,0
19.01.2019 05:00:00 3,1 0,2 8 4 E 1017,2 0,6
19.01.2019 04:00:00 3,4 0,3 17 9 NE 1017,3 0,2
19.01.2019 03:00:00 4,1 -0,1 19 10 ENE 1017,4 0,0
19.01.2019 02:00:00 4,3 -0,3 19 11 NE 1017,0 0,0
19.01.2019 01:00:00 4,0 0,9 22 12 NE 1016,9 0,2
19.01.2019 00:00:00 4,2 1,7 21 12 NNE 1017,2 0,0
18.01.2019 23:00:00 - - - - - - -
18.01.2019 22:00:00 5,0 2,2 24 13 NE 1016,4 0,0
18.01.2019 21:00:00 5,5 2,1 20 11 NE 1016,0 0,0
18.01.2019 20:00:00 5,8 2,4 17 9 NNE 1015,6 0,0
18.01.2019 19:00:00 5,8 2,1 9 5 NNE 1015,7 0,0
18.01.2019 18:00:00 6,0 2,1 16 8 NE 1015,2 0,0
18.01.2019 17:00:00 6,2 3,2 16 9 NE 1015,0 0,0
18.01.2019 16:00:00 6,6 4,1 18 10 ENE 1014,6 0,0
18.01.2019 15:00:00 8,0 4,2 12 6 ENE 1013,8 0,0
18.01.2019 14:00:00 7,5 4,1 18 10 NE 1013,4 0,0
18.01.2019 13:00:00 7,8 3,1 9 5 NE 1012,9 0,0
18.01.2019 12:00:00 7,7 3,0 3 2 ONO 1012,8 0,0
18.01.2019 11:00:00 5,9 3,1 6 4 ONO 1012,8 0,0
18.01.2019 10:00:00 6,7 3,7 10 5 ONO 1012,1 0,0
18.01.2019 09:00:00 4,3 2,8 10 5 SO 1011,2 0,0
18.01.2019 08:00:00 4,1 2,6 5 3 ONO 1010,5 0,0
18.01.2019 07:00:00 4,7 3,0 6 3 ONO 1010,2 0,0
18.01.2019 06:00:00 4,5 3,2 12 6 SO 1010,1 0,0
18.01.2019 05:00:00 4,3 3,0 10 6 SO 1009,8 0,2
18.01.2019 04:00:00 4,3 3,0 6 4 SSO 1010,0 0,6
18.01.2019 03:00:00 4,3 3,0 14 7 O 1010,7 0,4
18.01.2019 02:00:00 4,4 3,1 4 2 SO 1010,4 1,2
18.01.2019 01:00:00 4,1 2,8 8 5 O 1010,5 0,2
18.01.2019 00:00:00 3,9 2,6 6 3 ONO 1010,8 0,0
17.01.2019 23:00:00 4,3 2,8 6 3 ONO 1010,9 0,0
17.01.2019 22:00:00 4,4 2,7 3 2 O 1011,1 0,2
17.01.2019 21:00:00 4,5 2,5 5 3 NO 1011,4 0,0
17.01.2019 20:00:00 4,3 2,2 8 4 ONO 1011,5 0,0
17.01.2019 19:00:00 5,2 2,4 5 3 ONO 1011,7 0,0
17.01.2019 18:00:00 5,8 1,9 4 2 O 1012,0 0,0
17.01.2019 17:00:00 6,5 1,8 2 1 NE 1011,9 0,0
17.01.2019 16:00:00 7,4 1,7 6 3 N 1012,5 0,0
17.01.2019 15:00:00 8,1 1,9 10 6 N 1012,7 0,0
17.01.2019 14:00:00 8,1 2,1 10 6 NNE 1013,0 0,0
17.01.2019 13:00:00 8,0 2,9 11 6 NNE 1013,8 0,0
17.01.2019 12:00:00 6,9 2,0 10 6 NE 1014,6 0,0
17.01.2019 11:00:00 5,7 1,0 13 7 NE 1015,7 0,0
17.01.2019 10:00:00 4,0 0,5 - - - 1015,6 -
17.01.2019 09:00:00 2,6 -0,2 8 4 N 1015,6 0,0
17.01.2019 08:00:00 0,6 -0,9 4 2 NO 1015,5 0,0
17.01.2019 07:00:00 0,2 -1,6 5 3 ENE 1015,5 0,0
17.01.2019 06:00:00 1,3 -0,6 - - - 1015,7 -
17.01.2019 05:00:00 0,9 -0,9 2 1 ENE 1016,2 0,0
17.01.2019 04:00:00 -0,1 -1,7 6 3 N 1016,7 0,0
17.01.2019 03:00:00 0,0 -1,9 3 2 OSO 1017,3 0,0
17.01.2019 02:00:00 0,8 -1,4 3 2 SE 1017,4 0,0
17.01.2019 01:00:00 0,0 -2,1 11 6 ESE 1017,9 0,0
17.01.2019 00:00:00 0,8 -1,4 - - - 1018,4 0,0
16.01.2019 23:00:00 3,8 -0,4 8 4 O 1018,7 0,0
16.01.2019 22:00:00 4,8 0,4 11 6 S 1018,8 0,0
16.01.2019 21:00:00 4,4 0,0 3 2 S 1018,6 0,0
16.01.2019 20:00:00 6,0 0,9 6 3 SSE 1018,6 0,0
16.01.2019 19:00:00 4,8 0,4 - - - 1018,6 -
16.01.2019 18:00:00 6,4 0,9 - - - 1018,5 0,0
16.01.2019 17:00:00 10,4 1,7 4 2 S 1018,4 0,0
16.01.2019 16:00:00 12,6 1,3 4 2 SO 1018,4 0,0
16.01.2019 15:00:00 13,0 1,0 3 2 O 1018,4 0,0
16.01.2019 14:00:00 12,1 -0,1 - - - 1018,7 -
16.01.2019 13:00:00 10,2 -0,6 6 3 SO 1019,5 0,0
16.01.2019 12:00:00 8,2 -0,8 5 3 O 1020,3 0,0
16.01.2019 11:00:00 5,4 -2,0 6 3 NO 1021,0 0,0
16.01.2019 10:00:00 3,2 -3,4 5 3 O 1020,7 0,0
16.01.2019 09:00:00 -1,0 -4,2 2 1 SO 1020,5 0,0
16.01.2019 08:00:00 -3,7 -6,2 - - - 1020,1 -
16.01.2019 07:00:00 -4,0 -6,5 6 4 SSE 1020,1 0,0
16.01.2019 06:00:00 -4,5 -6,6 2 1 NE 1019,9 0,0
16.01.2019 05:00:00 -4,4 -6,7 1 1 E 1020,1 0,0
16.01.2019 04:00:00 -2,0 -5,7 4 2 OSO 1020,2 0,0
16.01.2019 03:00:00 -3,5 -5,8 - - - 1020,5 -
16.01.2019 02:00:00 -1,4 -4,9 3 2 S 1020,3 0,0
16.01.2019 01:00:00 -2,7 -5,7 4 2 N 1020,1 0,0
16.01.2019 00:00:00 0,2 -4,3 7 4 OSO 1020,1 0,0
15.01.2019 23:00:00 0,0 -3,9 2 1 S 1020,2 0,0
15.01.2019 22:00:00 0,9 -3,6 5 3 SSO 1020,1 0,0
15.01.2019 21:00:00 1,2 -3,7 - - - 1019,8 0,0
15.01.2019 20:00:00 2,3 -3,0 3 2 OSO 1019,5 0,0
15.01.2019 19:00:00 3,7 -3,1 4 2 OSO 1018,9 0,0
15.01.2019 18:00:00 3,3 -3,5 5 3 ESE 1018,5 0,0
15.01.2019 17:00:00 8,8 -3,1 5 3 OSO 1018,3 0,0
15.01.2019 16:00:00 10,7 -3,0 7 4 ONO 1017,9 0,0
15.01.2019 15:00:00 11,9 -4,3 12 6 O 1017,8 0,0
15.01.2019 14:00:00 11,7 -4,5 11 6 OSO 1017,9 0,0
15.01.2019 13:00:00 10,9 -3,6 10 5 O 1018,1 0,0
15.01.2019 12:00:00 8,7 -2,9 10 5 OSO 1018,7 0,0
15.01.2019 11:00:00 6,4 -3,3 9 5 O 1019,2 0,0
15.01.2019 10:00:00 5,0 -4,0 4 2 SO 1018,5 0,0
15.01.2019 09:00:00 1,9 -4,6 5 3 S 1017,6 0,0
15.01.2019 08:00:00 -1,2 -5,8 8 5 SSE 1016,8 0,0
15.01.2019 07:00:00 0,7 -5,5 6 3 OSO 1016,2 0,0
15.01.2019 06:00:00 1,4 -5,1 6 3 OSO 1015,6 0,0
15.01.2019 05:00:00 1,6 -5,1 3 2 OSO 1015,1 0,0
15.01.2019 04:00:00 2,0 -5,0 9 5 OSO 1014,8 0,0
15.01.2019 03:00:00 1,7 -5,0 6 3 S 1014,9 0,0
15.01.2019 02:00:00 0,7 -4,9 5 3 S 1014,1 0,0
15.01.2019 01:00:00 1,9 -4,6 8 4 OSO 1013,3 0,0
15.01.2019 00:00:00 5,4 -4,5 17 9 OSO 1012,1 0,0
14.01.2019 23:00:00 7,2 -5,2 15 8 NO 1011,0 0,0
14.01.2019 22:00:00 5,9 -4,8 17 9 O 1009,7 0,0
14.01.2019 21:00:00 6,5 -5,2 12 6 O 1009,3 0,0
14.01.2019 20:00:00 7,7 -5,1 11 6 O 1008,3 0,0
14.01.2019 19:00:00 8,9 -4,7 21 11 O 1007,0 0,0
14.01.2019 18:00:00 9,7 -3,6 23 13 O 1006,2 0,0
14.01.2019 17:00:00 11,6 -3,4 20 11 O 1005,4 0,0
14.01.2019 16:00:00 13,8 -1,0 19 10 O 1004,7 0,0
14.01.2019 15:00:00 13,8 1,4 14 8 O 1004,3 0,0
14.01.2019 14:00:00 13,5 1,8 14 8 O 1004,4 0,0
14.01.2019 13:00:00 - - - - - - -
14.01.2019 12:00:00 8,9 1,6 14 8 SO 1004,8 0,0
14.01.2019 11:00:00 5,9 0,8 - - - 1005,5 0,0
14.01.2019 10:00:00 2,0 -1,1 - - - 1005,6 -
14.01.2019 09:00:00 -0,3 -3,0 7 4 SSE 1004,4 0,0
14.01.2019 08:00:00 -2,3 -3,9 9 5 NNE 1002,4 0,0
14.01.2019 07:00:00 -2,7 -4,0 8 4 NE 1000,5 0,0

tt = Temperatura
td = dewpoint
ff = velocità del vento
dd = direzione del vento
ppp = reduced air pressure
rr = precipitazioni

Stazioni seguenti

WeatherPro
AMSI
MeteoEarth